Duluth, MN

10:33 AM CST on February 27, 2017 (GMT -0600)
Duluth International

Weather History for KDLH - September, 2012

Change the Weather History Date:

Friday, September 7, 2012

  Actual Average Record
Temperature  
Mean Temperature 57 °F 59 °F  
Max Temperature 64 °F 69 °F 95 °F (1976)
Min Temperature 49 °F 50 °F 30 °F (1986)
Degree Days  
Heating Degree Days 8 7  
Month to date heating degree days 11 41  
Since 1 July heating degree days 58 190  
Cooling Degree Days 0 1  
Month to date cooling degree days 17 7  
Year to date cooling degree days 402 197  
Growing Degree Days 7 (Base 50)    
Moisture  
Dew Point 48 °F    
Average Humidity 76    
Maximum Humidity 96    
Minimum Humidity 55    
Precipitation  
Precipitation T in 0.14 in 3.57 in (1991)
Month to date precipitation 0.06 0.95  
Year to date precipitation 28.31 21.65  
Snow  
Snow 0.00 in 0.00 in 0.00 in (2002)
Month to date snowfall 0.0 0.0  
Since 1 July snowfall 0.0 0.0  
Since 1 September snowfall 0.0 0.0  
Snow Depth 0.00 in    
Sea Level Pressure  
Sea Level Pressure 29.96 in    
Wind  
Wind Speed 9 mph (NW)    
Max Wind Speed 23 mph    
Max Gust Speed 32 mph    
Visibility 10 miles    
Events Rain    
T = Trace of Precipitation, MM = Missing Value Source: NWS Daily Summary

Daily Weather History Graph

Daily Weather History Graph

Search for Another Location

Airport or City:

Trip Planner

Search our weather history database for the weather conditions in past years. The results will help you decide how hot, cold, wet, or windy it might be!

Date:

Astronomy

Sep. 07, 2012 Rise Set
Actual Time 6:36 AM CDT 7:35 PM CDT
Civil Twilight 6:05 AM CDT 8:06 PM CDT
Nautical Twilight 5:28 AM CDT 8:43 PM CDT
Astronomical Twilight 4:49 AM CDT 9:22 PM CDT
Moon 11:03 PM CDT (9/7) 1:56 PM CDT (9/7)
Length of Visible Light 14h 00m
Length of Day
12h 58m
Waning Gibbous, 58% of the Moon is Illuminated
Sep 7
Waning Gibbous
Sep 8
Last Quarter
Sep 15
New
Sep 22
First Quarter
Sep 29
Full

Hourly Weather History & Observations

Time (CDT) Temp. Dew Point Humidity Pressure Visibility Wind Dir Wind Speed Gust Speed Precip Events Conditions
12:55 AM 55.0 °F 53.1 °F 93% 29.93 in 10.0 mi West 5.8 mph - N/A   Mostly Cloudy
1:55 AM 54.0 °F 52.0 °F 93% 29.92 in 10.0 mi WNW 6.9 mph - N/A   Clear
2:55 AM 52.0 °F 50.0 °F 93% 29.93 in 10.0 mi WNW 5.8 mph - N/A   Partly Cloudy
3:55 AM 53.1 °F 51.1 °F 93% 29.92 in 10.0 mi NNW 3.5 mph - N/A   Partly Cloudy
4:55 AM 52.0 °F 50.0 °F 93% 29.92 in 10.0 mi NNW 4.6 mph - N/A   Partly Cloudy
5:48 AM 51.8 °F 48.2 °F 88% 29.92 in 10.0 mi North 3.5 mph - N/A   Scattered Clouds
5:55 AM 51.1 °F 48.9 °F 92% 29.94 in 10.0 mi NNW 3.5 mph - N/A   Scattered Clouds
6:55 AM 50.0 °F 48.0 °F 93% 29.96 in 10.0 mi NW 3.5 mph - N/A   Scattered Clouds
7:55 AM 51.1 °F 48.9 °F 92% 29.98 in 10.0 mi NW 5.8 mph - N/A   Scattered Clouds
8:55 AM 54.0 °F 50.0 °F 86% 29.99 in 10.0 mi NW 8.1 mph - N/A   Scattered Clouds
9:32 AM 53.6 °F 48.2 °F 82% 29.97 in 10.0 mi NW 12.7 mph - N/A   Overcast
9:50 AM 53.6 °F 48.2 °F 82% 29.97 in 10.0 mi NW 10.4 mph - N/A   Overcast
9:55 AM 53.1 °F 48.9 °F 86% 29.99 in 10.0 mi NNW 10.4 mph - N/A   Overcast
10:11 AM 55.4 °F 50.0 °F 82% 29.97 in 10.0 mi NNW 11.5 mph - N/A   Overcast
10:55 AM 55.9 °F 48.0 °F 75% 29.98 in 10.0 mi NNW 6.9 mph - N/A   Overcast
11:11 AM 57.2 °F 48.2 °F 72% 29.96 in 10.0 mi NW 10.4 mph - N/A   Overcast
11:27 AM 57.2 °F 48.2 °F 72% 29.96 in 10.0 mi NW 10.4 mph - N/A   Overcast
11:43 AM 59.0 °F 48.2 °F 67% 29.95 in 10.0 mi NNW 9.2 mph - N/A   Mostly Cloudy
11:55 AM 60.1 °F 48.9 °F 67% 29.96 in 10.0 mi WNW 12.7 mph - N/A   Scattered Clouds
12:25 PM 55.4 °F 48.2 °F 77% 29.95 in 1.8 mi NW 11.5 mph - 0.00 in Rain Light Rain
12:32 PM 55.4 °F 48.2 °F 77% 29.95 in 4.0 mi WNW 9.2 mph - 0.00 in Rain Light Rain
12:55 PM 60.1 °F 50.0 °F 69% 29.96 in 10.0 mi NW 9.2 mph - 0.00 in   Scattered Clouds
1:55 PM 61.0 °F 45.0 °F 56% 29.96 in 10.0 mi NW 16.1 mph 21.9 mph N/A   Mostly Cloudy
2:55 PM 61.0 °F 45.0 °F 56% 29.96 in 10.0 mi WNW 18.4 mph 23.0 mph N/A   Mostly Cloudy
3:55 PM 61.0 °F 45.0 °F 56% 29.96 in 10.0 mi WNW 15.0 mph 24.2 mph N/A   Scattered Clouds
4:55 PM 60.1 °F 45.0 °F 57% 29.96 in 10.0 mi NW 16.1 mph 25.3 mph 0.00 in   Scattered Clouds
5:55 PM 60.1 °F 45.0 °F 57% 29.98 in 10.0 mi WNW 12.7 mph - N/A   Scattered Clouds
6:55 PM 57.0 °F 46.0 °F 67% 29.99 in 10.0 mi NW 8.1 mph - N/A   Overcast
7:55 PM 55.9 °F 46.9 °F 72% 29.99 in 10.0 mi WNW 5.8 mph - N/A   Mostly Cloudy
8:55 PM 55.0 °F 46.0 °F 72% 30.00 in 10.0 mi NW 10.4 mph - N/A   Partly Cloudy
9:55 PM 54.0 °F 46.0 °F 75% 30.00 in 10.0 mi NW 10.4 mph - N/A   Overcast
10:55 PM 55.0 °F 45.0 °F 69% 30.00 in 10.0 mi NW 11.5 mph 18.4 mph N/A   Mostly Cloudy
11:55 PM 52.0 °F 45.0 °F 77% 30.00 in 10.0 mi NW 8.1 mph - N/A   Partly Cloudy